This demonstration page uses our WeatherBlox Daily Observations layout. Learn more.

39.29038, -76.61219

Hourly Observations for March 27, 2019

Temp ( °F °C ) Dew Point ( °F °C ) Humidity (%) Winds ( mph kmh ) Pressure ( in mb ) Visibility ( mi km ) Precip ( " mm )
12:54 am 00:54 undefined 42 5.6 11 -11.7 28 28 undefined N/A 30.39 1029 N/A 0 0
1:54 am 01:54 undefined 40 4.4 10 -12.2 29 29 undefined N/A 30.4 1030 N/A 0 0
2:54 am 02:54 undefined 39 3.9 11 -11.7 31 31 undefined N/A 30.42 1030 N/A 0 0
3:54 am 03:54 undefined 38 3.3 11 -11.7 33 33 undefined N/A 30.42 1030 N/A 0 0
4:54 am 04:54 undefined 37 2.8 11 -11.7 34 34 undefined N/A 30.44 1031 N/A 0 0
5:54 am 05:54 undefined 37 2.8 9 -12.8 31 31 undefined N/A 30.46 1032 N/A 0 0
6:54 am 06:54 undefined 37 2.8 10 -12.2 33 33 undefined N/A 30.48 1032 N/A 0 0
7:54 am 07:54 undefined 37 2.8 9 -12.8 31 31 undefined N/A 30.5 1033 N/A 0 0
8:54 am 08:54 undefined 39 3.9 7 -13.9 26 26 undefined N/A 30.53 1034 N/A 0 0
9:54 am 09:54 undefined 42 5.6 11 -11.7 28 28 undefined N/A 30.53 1034 N/A 0 0
10:54 am 10:54 undefined 44 6.7 12 -11.1 27 27 undefined N/A 30.54 1034 N/A 0 0
11:54 am 11:54 undefined 45 7.2 16 -8.9 31 31 undefined N/A 30.55 1034 N/A 0 0
12:54 pm 12:54 undefined 47 8.3 13 -10.6 25 25 undefined N/A 30.54 1034 N/A 0 0
1:54 pm 13:54 undefined 48 8.9 14 -10 25 25 undefined N/A 30.53 1034 N/A 0 0
2:54 pm 14:54 undefined 49 9.4 13 -10.6 23 23 undefined N/A 30.5 1033 N/A 0 0
3:54 pm 15:54 undefined 50 10 12 -11.1 22 22 undefined N/A 30.49 1033 N/A 0 0
4:54 pm 16:54 undefined 49 9.4 9 -12.8 20 20 undefined N/A 30.47 1032 N/A 0 0
5:54 pm 17:54 undefined 48 8.9 15 -9.4 27 27 undefined N/A 30.46 1032 N/A 0 0
6:54 pm 18:54 undefined 48 8.9 16 -8.9 28 28 undefined N/A 30.46 1031 N/A 0 0
7:54 pm 19:54 undefined 47 8.3 20 -6.7 34 34 undefined N/A 30.46 1031 N/A 0 0
8:54 pm 20:54 undefined 47 8.3 24 -4.4 41 41 undefined N/A 30.46 1031 N/A 0 0
9:54 pm 21:54 undefined 45 7.2 28 -2.2 52 52 undefined N/A 30.47 1032 N/A 0 0
10:54 pm 22:54 undefined 43 6.1 27 -2.8 53 53 undefined N/A 30.48 1032 N/A 0 0
11:54 pm 23:54 undefined 42 5.6 28 -2.2 58 58 undefined N/A 30.48 1032 N/A 0 0

Powered by AerisWeather